Location: Newark
(40.9833°N, 0.0333°W)
Time: 18:14:14
(UTC+00:00)

Transit 4A - Pass Details

Date: 28 October 2020
Orbit: 862 x 982 km, 66.8° (Epoch: 23 November)

Event Time Altitude Azimuth Distance (km) Brightness Sun altitude
Rises 17:02:02 0° 263° (W) 3,618 13.3 -1.1°
Reaches altitude 10° 17:05:36 10° 284° (WNW) 2,697 11.5 -1.7°
Maximum altitude 17:09:32 17° 323° (NW) 2,256 10.2 -2.5°
Drops below altitude 10° 17:13:31 10° 2° (N) 2,735 10.2 -3.2°
Sets 17:17:12 0° 22° (NNE) 3,693 10.7 -3.9°
